RH
16 7 5 6 10 10 7 8 8 10 14 15 18 24 21 22 30 26 19 23 27 24 23 24 26 33 39 42 42 43 47 44 37 38 47 48 40 34 32 33 33 35 36 41 48 50 47 47 46 44 45 47 50 52 51 47 46 48 47 45 45 46 46 49 53 52 52 57 59 60 71 79 81 91 92 81 80 83 90 97 81 63 70 75 76 88 89
31 18 11 8 14 15 9 11 12 13 21 27 29 31 30 29 30 28 28 30 25 23 27 29 34 41 45 47 47 47 49 46 45 50 55 53 44 34 34 40 45 47 46 48 52 53 51 49 46 46 47 48 49 51 51 47 46 47 44 43 46 50 58 63 57 50 49 49 47 58 81 90 87 94 96 87 88 91 92 98 84 62 67 81 90 98 94
45 35 26 16 17 22 18 13 15 21 31 38 40 40 40 38 36 37 40 36 27 27 34 39 42 47 49 51 50 49 48 49 52 54 52 51 48 44 44 50 56 57 56 58 59 58 58 54 50 49 49 48 47 51 53 50 48 47 43 41 42 46 54 57 49 42 40 38 44 65 90 98 92 92 93 87 86 91 95 100 93 77 69 74 87 98 94
51 46 42 29 19 27 33 27 25 31 36 37 37 38 42 43 41 44 45 38 29 32 42 48 50 51 52 53 52 50 48 50 52 49 46 49 53 55 56 58 60 62 62 62 61 61 62 59 54 51 48 45 48 55 61 57 51 51 49 45 41 40 43 45 45 48 45 40 51 72 86 90 82 74 80 84 80 81 91 100 103 98 86 77 83 95 96
53 47 50 43 30 33 41 37 30 29 30 33 36 39 44 45 45 47 45 36 34 43 50 51 53 54 52 50 50 49 47 49 50 48 48 52 56 59 62 63 64 66 67 65 63 62 62 61 58 53 47 48 54 60 63 59 52 51 52 52 50 44 42 42 43 48 47 42 48 64 77 86 81 73 79 87 82 79 85 91 98 103 99 93 94 98 100
52 49 53 57 52 44 35 28 25 27 31 36 41 45 48 49 50 50 44 38 40 47 50 51 54 55 51 49 49 47 47 49 50 50 51 55 58 61 65 68 68 69 71 70 67 65 67 69 66 59 54 57 62 63 63 61 55 50 50 54 55 51 48 46 41 41 47 48 46 51 64 78 84 84 87 91 89 84 79 77 87 99 102 100 100 100 100
51 50 53 60 59 46 31 26 30 36 41 43 44 48 50 51 52 48 44 43 44 46 48 51 54 54 52 51 50 49 49 50 50 51 52 55 58 61 67 72 72 72 74 73 71 73 76 77 76 68 59 57 59 61 66 66 61 56 53 52 54 55 53 50 44 42 49 51 45 43 52 70 86 91 89 88 88 83 75 73 83 95 99 100 100 101 101
52 51 54 57 52 39 33 38 42 43 45 44 46 51 52 53 53 50 49 51 50 50 53 54 55 55 54 53 52 51 51 50 50 51 52 57 63 69 76 76 72 73 76 74 70 70 71 76 78 69 56 51 57 66 74 76 70 63 58 57 58 57 54 50 47 45 47 46 42 43 55 73 92 99 94 90 89 82 75 77 84 87 90 93 96 97 96
53 48 53 55 50 40 37 41 45 43 42 46 53 59 58 55 54 54 55 57 55 55 58 57 56 55 55 54 53 53 52 51 52 52 52 57 68 81 87 81 71 70 75 76 72 68 69 74 74 65 57 57 69 82 89 88 81 70 62 63 61 56 53 51 48 45 44 39 34 42 59 72 85 93 92 93 99 93 79 79 88 91 92 93 94 96 96
57 47 50 53 52 46 37 35 39 41 44 52 59 59 57 58 59 57 58 59 58 59 61 59 56 55 55 55 55 55 55 54 54 54 53 56 64 75 81 77 70 70 75 80 80 76 73 69 64 66 70 72 82 95 98 92 84 75 70 68 63 56 53 52 49 47 42 32 27 42 60 63 65 77 86 94 105 103 89 83 89 96 100 100 97 98 101
59 48 47 49 50 46 37 32 35 41 49 58 61 56 53 59 62 60 59 59 59 62 64 61 57 56 56 56 57 57 59 59 58 58 60 62 64 69 71 69 67 72 79 84 82 79 78 73 71 77 81 80 84 92 91 85 80 78 76 72 66 59 54 53 53 49 41 33 33 47 61 61 63 76 85 85 86 87 85 85 85 87 95 101 100 99 101
58 51 48 47 49 48 43 36 35 42 52 59 61 56 52 58 63 61 59 59 60 64 66 63 59 58 57 57 59 61 62 64 64 63 64 64 65 70 76 77 76 77 79 78 74 72 73 73 75 79 82 84 84 85 84 83 80 78 76 72 66 59 55 56 55 50 45 40 36 42 53 59 60 65 65 61 66 81 88 84 78 79 88 96 97 96 99
59 57 53 48 47 46 45 41 40 47 55 57 55 54 53 58 63 62 60 60 61 64 68 66 62 60 60 61 63 66 67 68 67 66 65 64 64 68 75 80 81 79 77 72 68 67 67 69 74 80 84 86 82 80 84 85 80 78 75 69 64 61 59 57 51 46 48 43 32 37 52 54 44 39 40 41 58 87 98 85 74 77 83 88 90 93 98
69 68 59 52 48 46 47 46 44 48 54 53 52 56 60 65 69 70 70 69 65 63 68 72 69 64 62 63 64 67 70 70 67 66 65 64 65 67 69 72 74 75 75 74 73 74 73 74 80 83 83 84 79 75 78 81 81 81 74 66 66 64 60 54 43 39 44 38 28 37 53 48 32 34 45 47 53 78 92 82 73 75 78 82 89 96 100
79 77 66 56 53 51 52 52 49 46 48 48 50 54 59 65 72 74 73 73 72 69 69 72 71 65 63 64 65 67 71 74 72 69 66 65 66 67 65 66 68 72 76 77 78 79 74 71 75 78 79 82 79 74 76 83 87 84 77 73 74 70 61 50 37 31 35 31 27 36 47 43 35 42 58 60 59 73 86 82 78 81 85 89 94 98 100
88 85 72 59 57 58 57 57 56 51 47 46 49 52 53 57 63 67 66 69 75 75 73 70 68 65 64 66 68 68 71 75 74 69 65 64 64 64 61 60 61 65 69 69 71 75 73 70 72 77 82 86 83 79 84 91 92 87 82 79 76 70 61 48 32 24 26 25 28 37 42 39 37 43 52 56 63 76 84 86 87 90 94 98 99 98 101
87 85 76 66 64 67 65 62 60 57 54 53 54 57 59 60 63 64 64 66 69 71 71 69 67 65 64 64 65 64 64 66 66 63 62 63 63 62 61 61 61 62 61 60 62 67 71 72 75 82 88 90 88 87 91 90 85 82 79 74 71 67 58 41 26 22 26 28 31 37 35 33 39 46 46 50 66 78 81 85 91 90 88 94 98 98 100
84 86 85 78 72 70 68 67 66 63 63 62 60 63 67 71 74 72 68 67 69 69 71 72 69 68 68 67 67 66 63 62 61 61 64 66 68 69 68 67 69 71 71 70 69 67 64 67 79 92 98 96 93 91 87 79 74 76 76 73 68 62 49 32 22 23 28 31 34 35 34 39 54 64 63 62 71 76 73 75 84 85 82 86 92 96 100
93 93 90 85 83 82 79 77 74 70 69 68 69 73 76 77 79 78 75 74 72 71 74 76 75 73 72 72 73 73 73 73 72 71 72 73 73 75 77 76 75 77 77 78 81 79 72 71 81 91 92 89 86 84 81 79 81 88 90 82 68 54 39 27 22 23 27 30 33 34 35 41 53 64 69 71 74 75 72 73 79 82 80 80 86 93 94
100 97 90 87 90 90 89 89 86 78 74 73 75 79 84 85 85 84 81 79 77 77 79 81 81 79 77 77 78 79 80 83 83 83 85 84 80 80 82 80 75 74 73 74 80 82 78 74 76 79 79 80 80 83 87 90 90 90 84 71 56 43 32 24 22 24 27 31 36 38 36 37 40 48 61 74 79 81 83 80 74 70 69 72 78 81 80
94 93 92 95 95 89 86 90 90 84 81 81 80 80 84 87 88 88 85 82 80 79 79 80 79 76 72 73 76 78 81 85 85 86 90 91 87 86 86 81 74 71 67 64 65 66 67 69 73 74 73 71 69 70 74 75 71 66 57 48 40 33 28 25 24 25 29 33 36 37 36 36 36 40 53 69 76 78 75 67 59 57 58 59 60 62 71
78 78 80 89 95 94 93 94 92 87 85 85 86 87 87 84 82 84 85 82 79 79 79 79 80 78 74 75 78 79 83 86 86 85 88 88 87 86 82 74 66 61 56 55 57 58 58 63 67 64 61 58 55 54 56 55 52 48 43 39 36 32 30 29 27 27 28 30 33 36 38 39 39 39 42 47 51 51 48 44 45 46 41 39 48 66 82
59 61 63 70 79 87 94 97 98 97 94 92 93 96 95 91 88 89 90 89 88 88 87 85 84 83 82 82 82 81 82 82 82 85 89 89 86 83 75 64 58 58 58 58 57 53 49 52 55 52 50 49 47 46 45 42 39 37 35 34 33 31 30 30 29 30 32 33 36 41 43 44 46 46 41 36 33 31 29 28 30 30 27 37 64 86 87
62 56 51 54 60 69 77 85 93 97 96 96 97 96 93 92 93 94 94 94 93 91 86 82 77 74 74 75 74 76 79 81 84 90 91 84 76 71 65 57 58 63 65 60 54 48 44 46 47 44 41 39 38 39 39 38 37 36 34 34 33 32 32 33 35 38 42 44 46 48 49 50 51 47 42 36 31 26 23 22 23 24 26 40 59 65 56
76 68 53 46 49 57 63 67 74 81 82 82 84 86 86 87 88 86 83 78 75 71 66 63 61 61 64 67 69 74 82 88 88 86 81 73 68 64 60 60 63 65 61 55 50 47 44 44 45 43 39 36 36 37 38 39 39 38 38 39 40 39 39 41 42 44 49 53 55 53 52 53 51 45 39 36 31 27 25 22 21 22 25 29 33 34 31
68 71 65 54 51 58 63 62 64 68 69 69 69 71 73 74 72 70 64 58 59 63 65 64 65 68 72 76 77 79 84 86 83 76 71 69 69 66 63 64 64 57 49 45 43 40 38 38 39 38 35 33 33 34 35 36 36 37 38 39 38 37 38 39 40 44 49 53 54 53 51 49 48 46 43 39 33 28 24 20 22 32 39 36 31 28 25
59 64 67 62 60 63 65 63 60 59 59 60 58 57 58 57 56 57 57 55 56 64 69 68 67 70 72 74 75 76 76 75 73 69 67 67 68 68 69 68 60 48 39 36 34 32 31 31 32 33 33 33 34 34 35 36 37 38 38 37 36 39 42 40 40 45 50 53 56 55 50 46 48 50 46 38 31 26 21 22 31 43 47 41 33 27 22
69 73 75 73 71 67 61 60 65 68 69 69 65 60 58 57 56 58 61 58 56 57 58 56 56 58 61 60 58 58 60 63 65 66 67 68 69 69 69 63 52 42 37 34 30 28 27 29 32 34 35 35 36 36 37 38 37 36 35 31 27 27 32 39 51 63 70 72 68 57 47 47 52 52 45 36 33 32 32 36 44 47 42 33 24 18 13
81 82 84 83 80 77 74 76 84 86 81 73 67 61 56 52 50 48 48 47 45 45 45 44 43 44 46 47 45 43 43 46 50 55 60 63 61 58 54 49 43 39 36 33 29 28 30 33 37 38 37 37 37 36 36 33 29 27 27 27 28 30 34 48 69 84 85 78 64 48 45 52 54 50 45 43 42 43 44 43 41 35 26 20 18 21 28
84 84 88 89 86 86 88 89 88 83 73 64 59 55 51 46 42 38 34 31 31 32 34 35 35 34 34 35 37 37 39 42 44 46 48 48 44 39 35 32 30 29 28 27 28 30 34 37 38 37 36 35 31 29 26 23 22 26 30 32 37 41 40 46 61 68 62 53 42 35 39 46 48 48 51 51 48 47 45 39 34 32 31 36 46 53 59
91 91 92 90 84 79 76 72 66 61 57 54 51 48 44 41 38 33 29 25 24 25 28 30 31 32 32 31 32 34 38 42 45 45 42 38 33 30 26 24 23 23 24 27 31 33 35 37 35 32 29 26 23 22 20 17 20 27 26 22 25 30 31 37 45 45 37 33 31 29 37 51 60 65 64 58 53 48 39 33 41 50 50 48 48 46 45
87 85 82 76 71 66 62 57 52 48 45 43 41 38 35 33 32 30 29 27 26 26 26 25 25 27 28 29 29 29 30 33 36 37 36 33 31 29 28 28 30 31 31 33 35 36 35 32 28 24 22 20 17 14 11 14 22 26 18 10 14 22 30 40 44 37 33 37 41 46 59 71 73 68 61 52 47 41 29 22 29 33 28 24 26 30 35
68 67 64 61 59 56 53 50 47 45 42 39 37 35 33 33 34 35 35 34 33 32 32 31 30 30 29 28 28 27 27 28 29 30 30 31 32 31 32 33 35 36 36 35 34 31 27 24 20 18 16 14 13 15 23 36 47 46 36 29 25 25 36 53 56 47 46 59 70 77 82 75 61 54 53 47 38 30 22 17 16 16 19 26 35 40 43
57 57 56 55 53 51 50 49 46 45 43 40 39 38 37 37 38 38 37 36 36 36 36 37 37 37 37 36 35 33 32 31 30 30 32 33 33 33 33 33 33 32 30 27 24 22 21 19 17 15 14 13 15 25 38 42 38 37 47 58 59 57 67 83 85 75 74 84 89 82 68 51 40 40 43 37 27 21 19 19 21 24 29 35 39 44 49
53 53 54 54 53 51 50 48 46 45 44 42 40 39 38 38 38 37 37 37 38 39 41 43 44 45 45 43 40 38 36 33 31 31 31 31 31 30 28 27 26 24 22 20 18 17 15 13 10 9 10 9 7 10 16 14 13 32 65 87 90 90 95 99 98 97 97 93 79 60 45 36 34 32 28 23 21 23 25 28 30 31 31 33 38 48 59
51 53 52 52 52 50 48 46 44 43 42 41 41 41 41 41 41 41 40 40 40 40 40 39 39 39 38 36 35 33 31 28 27 26 25 24 23 21 19 19 17 15 13 12 11 9 9 10 10 9 7 6 3 5 10 14 25 54 88 101 98 97 100 100 100 101 94 75 55 42 37 34 29 24 21 23 27 30 32 32 30 26 26 28 33 40 47
49 50 49 47 46 45 44 43 43 42 42 42 43 44 44 44 43 42 41 38 36 33 31 29 27 26 24 22 21 20 19 19 18 17 16 16 14 13 13 12 10 9 9 8 8 9 8 6 4 2 3 9 15 24 37 52 65 80 96 102 99 98 101 101 98 90 75 55 40 31 26 23 22 24 29 33 33 31 28 23 19 18 19 20 21 24 26
45 45 45 44 43 43 42 42 42 42 43 44 44 44 45 43 40 37 34 30 26 24 21 20 18 16 15 14 14 13 12 13 12 11 11 11 10 9 10 9 7 10 10 6 7 10 9 10 19 30 36 40 44 50 65 84 94 95 97 100 100 100 102 99 87 70 52 36 23 16 16 22 29 34 34 30 25 21 17 15 14 14 14 14 14 15 15
43 43 43 42 42 43 44 45 46 47 46 45 43 41 38 35 31 28 25 22 19 17 16 15 14 12 11 10 10 9 9 10 10 9 9 9 9 9 9 9 11 13 12 14 23 27 21 20 35 50 54 56 60 68 81 95 100 98 100 102 100 99 97 86 67 46 28 16 12 16 25 33 35 31 25 20 16 14 13 13 13 13 12 12 13 12 11
42 43 44 46 49 50 50 50 49 47 43 40 36 33 29 26 23 20 18 15 14 13 12 12 10 10 9 9 9 9 9 9 9 9 9 10 11 11 11 13 15 14 12 21 41 56 54 48 46 46 49 58 67 72 78 85 86 86 91 97 99 96 85 62 38 22 14 13 20 29 34 34 29 23 19 17 15 13 13 11 10 10 10 10 9 9 10
49 52 55 56 57 55 51 47 43 38 35 31 27 24 21 18 16 14 13 12 12 11 11 10 10 9 10 10 9 9 10 10 11 13 13 13 14 15 15 16 16 14 11 16 32 52 70 78 73 67 73 88 93 91 90 88 78 69 71 81 89 83 61 33 16 14 18 25 32 33 29 25 23 20 18 16 13 11 9 8 7 8 8 8 9 10 11
63 62 59 56 51 45 41 37 32 28 25 22 19 16 14 13 12 12 11 11 11 11 12 13 13 13 12 12 12 13 15 17 18 18 18 18 18 18 18 19 19 18 18 21 26 36 50 61 63 67 83 99 102 96 92 87 77 69 70 74 69 53 32 17 17 25 29 30 28 24 20 21 22 19 16 13 10 7 7 7 7 7 7 7 8 9 10
58 52 46 42 39 35 32 29 25 21 18 15 13 12 11 11 11 11 11 13 15 18 19 20 20 19 19 20 22 23 25 24 22 22 21 20 21 22 23 25 26 25 24 24 23 21 22 26 34 51 77 96 95 82 71 65 60 56 51 43 33 25 21 24 29 31 27 24 21 20 20 21 20 15 11 9 8 8 9 9 9 9 9 8 8 9 9
44 42 39 37 34 31 27 22 18 14 13 11 9 9 9 9 11 14 17 22 26 27 27 26 26 25 26 28 28 29 28 26 24 23 22 21 23 26 28 29 30 30 30 30 29 27 27 33 42 54 66 70 61 46 35 31 28 22 18 18 21 26 31 32 29 24 21 19 19 19 19 18 14 11 10 10 10 10 11 12 12 13 13 11 10 10 9
43 40 37 33 28 23 19 15 12 10 9 8 8 10 13 16 19 23 27 32 33 30 28 27 26 24 24 24 25 26 26 24 22 21 19 18 19 23 26 28 29 30 31 34 36 37 39 44 49 50 47 39 30 23 19 19 19 20 23 28 31 30 28 24 20 17 17 17 17 17 16 14 11 11 11 12 12 13 14 14 16 16 16 15 14 13 12
36 32 27 22 18 15 12 10 9 9 10 11 15 20 25 30 33 34 35 35 32 28 25 24 22 20 18 16 16 16 17 16 15 14 13 12 14 17 20 25 29 32 33 33 34 34 34 33 33 31 29 26 24 24 24 25 26 27 27 26 23 20 18 16 14 13 13 13 13 14 13 11 11 13 14 15 16 17 17 17 17 17 17 18 18 17 16
23 20 17 14 12 11 10 9 11 16 23 28 34 39 41 43 45 44 40 35 30 26 24 22 20 18 15 14 12 12 11 10 10 10 9 10 12 14 15 17 19 20 22 23 22 21 21 20 19 19 19 19 18 18 17 18 18 17 16 15 14 13 12 10 9 9 9 10 10 11 11 11 13 15 16 18 20 21 20 20 21 20 19 19 19 18 19
15 14 13 12 13 13 11 11 20 34 45 50 52 53 52 50 50 49 44 38 32 27 24 21 19 18 16 14 13 12 10 9 8 9 9 9 9 10 10 11 11 11 11 12 11 10 10 10 10 11 11 11 11 11 11 11 11 10 10 10 10 9 8 8 8 8 8 9 9 10 11 13 14 15 18 21 24 24 23 22 22 21 20 19 19 19 18
12 12 11 11 12 11 10 13 28 48 60 61 58 54 51 49 47 45 42 37 31 26 23 21 19 17 15 13 11 10 9 8 8 8 8 8 9 9 8 8 9 9 9 8 8 8 8 8 8 9 9 8 8 8 8 7 8 8 8 8 9 9 9 9 8 8 8 9 10 11 12 14 14 16 18 20 22 24 25 24 23 22 22 20 19 18 18
11 11 9 9 13 18 21 27 40 56 64 61 55 49 45 41 39 36 33 29 26 22 20 18 16 14 12 11 10 9 9 9 8 8 8 8 8 9 9 8 8 8 8 7 7 7 7 7 6 7 7 7 7 7 8 8 8 8 8 8 9 9 9 9 9 9 10 10 11 12 13 14 14 15 15 16 17 19 21 22 22 23 22 21 21 20 20
8 9 9 14 26 40 49 54 60 65 64 58 51 45 39 35 32 29 25 23 20 18 15 14 13 12 11 11 10 9 9 9 8 9 9 8 8 8 8 8 8 7 7 7 7 7 7 8 8 8 8 8 8 8 8 9 9 9 9 9 9 10 10 10 10 11 10 11 12 13 13 14 14 14 14 14 14 14 15 17 19 20 21 21 21 21 21
22 21 21 26 40 55 65 68 69 68 62 54 48 42 35 30 26 22 19 17 16 14 13 12 12 11 11 10 10 9 9 9 9 9 9 9 9 9 8 8 8 8 8 8 8 8 8 9 9 9 9 10 10 10 10 10 10 10 11 11 10 11 11 10 10 11 11 12 12 12 12 13 13 13 13 13 14 14 14 15 16 17 18 19 19 19 19
Wind_Speed
32 39 43 46 47 48 49 50 51 52 52 52 53 53 50 51 53 48 38 38 40 37 30 24 20 19 19 17 14 12 13 15 16 16 16 16 17 18 14 11 10 11 11 11 11 12 12 12 13 14 14 14 15 16 17 18 20 22 25 27 29 30 31 32 35 37 38 39 43 48 51 52 52 48 40 31 29 30 31 33 37 38 38 39 40 39 37
26 31 38 43 46 48 50 52 52 52 52 52 51 49 46 47 49 44 38 38 37 29 23 22 21 20 19 18 18 16 17 18 16 16 17 17 17 16 12 10 11 13 14 15 15 16 17 18 19 19 18 17 17 17 18 19 21 23 26 28 31 32 31 32 35 38 39 41 44 51 54 54 56 54 47 39 38 35 30 34 38 39 39 41 41 39 37
27 28 31 38 45 49 50 52 52 52 52 51 49 48 45 44 44 41 39 40 35 26 21 23 24 24 23 23 22 21 20 20 20 20 20 16 13 12 12 12 14 16 18 18 19 20 22 23 23 23 21 21 20 20 21 23 23 25 26 28 30 30 29 31 34 36 38 41 44 49 50 48 46 43 38 36 42 40 35 37 39 40 42 44 43 41 39
30 29 28 34 42 48 52 54 52 50 50 49 46 45 46 45 43 41 41 40 32 24 22 24 24 25 26 25 25 24 23 24 23 22 20 15 11 11 14 16 18 19 20 20 21 23 24 26 27 26 25 25 24 25 27 28 28 27 27 29 30 30 30 32 36 38 39 39 41 42 39 36 35 31 30 35 41 41 39 39 41 42 43 44 45 44 41
33 31 28 30 36 45 56 56 50 48 48 47 44 42 43 44 43 42 41 35 27 22 23 25 26 27 26 25 26 26 26 25 23 21 19 15 13 15 18 20 22 23 23 23 24 26 28 29 29 29 29 28 28 29 30 31 31 30 29 32 33 33 35 36 38 41 40 38 38 38 34 33 35 36 35 38 41 42 42 42 42 44 44 43 43 44 43
36 32 29 29 34 45 54 51 45 44 45 43 41 40 41 41 41 40 37 32 30 28 27 28 28 27 25 24 26 26 26 25 24 22 20 18 18 19 21 23 25 26 26 26 28 28 28 29 29 30 31 31 31 32 33 34 34 33 32 34 36 37 39 40 40 40 41 42 40 37 35 36 38 39 39 39 42 42 43 45 43 43 44 42 40 41 42
38 35 34 35 39 45 49 47 43 43 42 40 40 40 41 40 40 39 36 34 35 35 33 33 33 29 25 25 27 28 27 28 28 26 23 22 23 22 22 25 28 28 29 30 29 28 27 27 28 30 33 35 35 35 36 36 36 36 36 37 39 40 41 42 41 41 42 44 44 41 38 35 35 39 40 41 44 44 44 44 41 39 40 37 35 37 40
39 38 38 40 40 43 48 49 47 44 42 40 40 41 41 40 39 38 36 34 34 35 35 36 34 31 28 27 28 29 30 31 32 29 27 28 29 26 23 26 30 29 30 30 29 28 29 28 29 33 37 38 37 37 37 37 37 39 39 40 41 42 42 42 42 44 45 44 44 42 39 35 36 39 41 43 46 48 45 41 37 34 34 33 33 36 40
39 39 39 38 36 39 47 50 48 46 43 41 39 38 38 38 37 36 35 34 35 36 36 36 35 33 32 32 32 32 32 33 33 33 33 34 32 27 26 30 33 32 31 31 31 32 32 32 34 39 41 41 38 36 37 38 39 40 40 41 42 43 42 42 43 46 47 46 45 42 38 38 40 41 44 47 47 47 45 40 34 31 33 34 37 40 41
38 40 39 37 35 36 43 46 46 45 43 40 38 35 34 35 37 37 37 37 37 36 36 36 36 34 35 36 36 35 35 35 34 34 35 35 31 28 30 35 38 38 36 36 35 36 38 39 41 42 42 41 39 37 37 40 42 42 42 42 44 44 43 43 45 48 49 49 46 42 40 42 44 42 44 46 44 43 44 40 33 31 33 37 41 44 43
38 40 40 38 35 34 37 41 44 44 42 40 39 36 34 35 38 39 40 39 38 37 37 39 39 37 38 39 38 38 37 35 32 32 32 32 31 31 35 38 39 39 40 40 40 42 43 44 44 44 43 43 42 41 42 43 44 44 43 44 46 46 45 46 47 49 49 48 45 43 43 45 46 44 43 43 44 45 45 42 38 35 35 37 40 42 40
40 41 41 40 37 33 34 39 42 41 40 41 41 40 39 39 39 41 42 41 40 38 37 39 39 39 40 41 41 41 39 35 32 31 32 32 33 34 37 40 40 41 44 46 46 48 48 47 47 47 46 46 46 46 45 45 45 45 44 46 47 47 46 48 49 49 48 46 43 43 44 45 45 46 46 46 46 44 41 40 39 38 38 39 39 39 37
41 41 41 40 38 34 33 37 40 39 39 41 41 41 42 42 42 43 43 43 44 43 40 40 41 41 40 40 42 44 43 39 36 36 36 36 36 36 39 42 44 46 48 49 49 51 51 50 50 49 48 48 48 48 47 46 46 46 46 48 48 47 47 49 49 49 47 45 43 42 44 46 48 49 49 48 45 41 38 37 37 37 37 36 33 33 32
39 40 41 40 37 34 32 34 37 38 38 39 41 42 42 42 41 41 42 43 45 45 41 37 39 42 42 41 43 45 44 42 42 41 41 41 40 40 40 42 45 46 47 49 50 52 52 52 50 49 49 50 51 50 49 48 47 48 49 50 49 48 48 49 49 48 46 45 44 42 44 47 48 47 45 43 40 38 36 33 32 33 32 29 27 28 28
36 36 40 40 37 34 32 32 35 37 36 36 39 41 41 41 41 40 40 42 45 47 44 38 37 40 41 41 41 40 40 42 44 45 46 46 46 44 42 41 42 44 46 48 50 51 52 52 52 53 55 55 55 53 51 49 50 51 52 52 51 49 48 48 48 46 45 46 46 43 44 45 45 43 40 38 37 34 31 28 29 32 31 27 24 25 27
34 34 39 40 38 35 34 34 36 37 36 34 36 38 39 40 41 39 38 39 40 43 44 41 37 37 37 37 36 35 35 38 40 41 43 44 44 42 39 38 39 41 43 45 47 49 51 53 55 58 59 57 55 53 51 51 52 53 53 52 51 49 48 47 47 45 45 46 46 45 45 44 43 40 38 37 34 30 28 27 28 31 32 29 26 29 35
34 36 37 38 38 37 36 36 37 37 36 35 35 35 36 36 37 35 34 35 35 35 38 39 36 34 34 34 34 34 34 34 35 36 38 38 38 36 35 35 36 38 40 42 44 47 52 55 58 59 57 55 53 52 52 52 53 53 52 51 49 47 47 46 45 44 44 45 45 45 45 44 42 39 36 35 32 30 29 31 29 28 29 28 31 37 43
34 37 36 35 37 38 38 37 37 37 37 37 36 36 36 35 34 33 33 34 34 34 36 38 36 34 33 34 34 34 35 35 36 37 37 36 36 35 35 36 38 40 43 46 47 49 52 55 57 57 54 52 51 51 52 53 54 53 52 50 47 45 45 44 44 43 43 44 44 44 44 43 40 37 35 32 31 31 34 36 34 31 30 32 34 38 42
32 35 37 37 38 38 38 38 38 39 39 38 37 37 36 34 33 33 33 33 34 36 38 39 39 38 37 37 36 37 37 37 38 38 37 35 36 36 36 39 42 45 48 50 50 50 51 53 54 52 50 49 50 52 53 53 53 51 49 46 44 43 42 43 43 43 44 44 43 42 42 42 40 39 38 35 34 34 35 35 35 36 39 41 40 41 44
34 33 37 40 40 41 41 41 40 41 42 42 41 39 37 35 34 34 34 34 35 36 38 39 40 40 40 40 40 40 40 41 41 39 38 38 38 37 38 42 46 49 52 51 48 45 45 47 47 46 46 45 46 46 45 44 43 41 40 40 39 40 41 42 43 44 44 43 41 40 40 40 41 41 39 37 34 32 32 34 38 42 45 45 43 44 45
39 34 33 36 39 41 43 44 44 43 42 42 43 43 42 40 38 37 36 36 36 36 36 36 39 40 41 41 41 41 41 42 42 42 42 42 39 36 38 43 48 51 52 50 45 42 39 37 35 35 35 35 34 33 34 34 34 35 35 36 37 39 41 43 44 44 43 42 41 41 41 41 41 41 39 37 36 36 38 42 45 46 46 46 46 46 43
41 38 33 32 34 36 37 41 46 48 47 45 43 42 42 42 41 39 38 36 36 37 36 37 38 39 40 41 41 41 42 42 43 44 44 43 41 39 41 45 48 49 49 48 45 39 34 31 28 27 26 26 28 29 31 33 34 35 36 37 38 40 42 43 44 45 45 44 43 43 44 44 42 41 41 42 44 46 48 49 48 46 46 46 45 41 37
40 41 39 37 37 37 35 36 40 45 46 47 46 44 43 43 42 42 39 37 36 36 37 37 38 39 40 41 42 44 46 47 47 48 44 39 39 41 42 44 46 46 45 43 39 33 29 26 25 24 25 27 29 31 33 34 36 37 37 38 39 40 42 43 44 45 45 45 46 46 47 46 45 45 46 47 48 50 51 51 49 46 45 43 40 38 40
37 41 42 42 43 43 40 36 35 37 36 35 36 36 36 36 36 36 36 35 36 37 37 38 40 42 44 45 47 50 52 50 48 46 41 36 37 40 42 43 43 41 37 35 33 31 29 28 28 28 28 30 31 32 33 35 36 37 38 39 40 41 42 43 44 45 46 46 47 48 48 48 48 48 48 48 49 50 50 50 47 44 43 42 41 43 47
33 34 38 42 43 45 45 41 38 36 34 31 30 29 28 28 30 31 32 33 35 38 40 41 43 44 46 47 47 47 46 43 40 38 37 36 37 40 41 40 37 33 32 33 33 33 33 32 32 32 33 33 33 33 34 35 36 37 39 40 41 42 43 44 45 46 46 46 47 47 48 48 49 50 50 50 50 50 49 48 46 43 42 42 44 47 49
34 32 34 37 38 39 41 41 38 37 35 34 34 34 32 31 31 31 31 30 29 29 31 34 37 39 41 42 42 40 39 37 35 34 36 38 40 40 38 35 33 32 33 34 34 34 33 32 33 34 34 35 36 35 36 37 39 41 42 43 44 45 45 45 45 45 45 45 46 46 47 49 49 50 50 50 50 49 47 46 44 41 40 41 43 45 47
35 35 35 36 36 36 37 36 34 34 35 35 35 36 36 36 35 33 31 30 28 27 28 29 29 30 32 33 33 33 34 34 34 36 38 40 40 38 36 34 34 34 34 33 32 32 32 32 33 34 35 36 37 38 40 42 43 44 45 45 45 45 44 44 44 44 44 45 46 46 48 49 49 49 49 48 47 46 45 44 42 40 41 43 45 46 47
31 32 32 33 34 35 35 34 31 28 26 25 25 25 25 26 25 23 24 27 30 33 34 32 31 30 31 30 29 29 29 30 31 33 35 35 35 35 35 36 36 36 35 34 33 34 34 35 36 36 38 39 39 41 42 44 45 46 46 46 46 45 45 44 43 43 43 45 46 48 49 48 47 46 46 45 43 42 41 40 40 41 44 46 48 49 49
27 27 28 29 29 28 27 26 24 21 17 14 14 14 15 16 16 18 21 24 27 29 31 31 31 31 32 33 33 32 31 31 31 31 31 32 33 34 35 36 36 37 36 36 36 37 37 37 38 38 40 41 42 43 44 45 45 45 46 47 45 43 43 43 42 42 44 46 48 49 48 46 45 44 42 41 40 39 39 40 41 43 46 47 48 48 47
23 23 23 22 21 21 20 17 17 17 16 16 16 17 18 19 20 21 22 23 24 25 26 27 28 29 30 32 34 34 33 32 31 31 32 33 34 35 35 36 37 38 38 39 39 39 39 39 39 40 41 42 43 44 44 44 44 43 44 45 43 42 42 43 43 44 46 47 48 47 47 45 42 40 39 38 39 40 41 42 42 43 45 46 46 45 45
21 22 20 15 13 15 16 17 19 21 22 23 24 24 25 26 26 26 25 25 24 23 23 24 25 26 27 29 30 31 32 32 33 34 35 36 36 37 37 38 39 39 40 40 40 40 40 40 41 42 43 43 44 44 44 43 43 43 44 44 43 42 43 43 44 45 46 46 46 46 44 41 38 37 38 39 40 41 42 41 40 41 44 46 46 47 47
19 19 19 19 18 17 18 20 22 23 24 25 25 26 26 26 26 26 25 24 23 23 24 25 25 26 26 27 29 30 32 33 34 36 38 39 39 39 39 39 40 40 41 41 40 40 41 41 42 43 44 45 46 46 46 45 45 47 48 48 45 43 43 43 43 44 44 43 42 40 38 37 38 39 39 39 40 41 42 42 41 42 45 45 45 45 44
21 20 19 20 20 20 19 20 20 21 22 23 23 24 24 23 23 23 23 23 24 25 26 26 27 28 29 30 31 32 32 33 35 36 37 38 39 40 40 39 40 40 41 41 41 41 42 43 44 45 46 47 48 48 46 43 44 47 50 48 45 43 42 41 42 42 41 38 37 35 35 37 40 41 40 40 41 43 43 43 43 43 42 41 39 38 37
21 20 19 19 19 19 19 19 19 20 20 21 21 22 22 23 24 25 26 27 28 28 29 30 30 31 32 32 33 33 33 34 34 35 36 37 38 39 39 39 40 40 41 42 42 43 43 44 45 46 47 48 48 46 44 42 44 48 50 47 43 41 39 38 38 38 36 34 34 36 39 42 42 42 42 43 43 43 41 40 39 38 37 36 34 33 32
21 20 19 19 19 19 19 19 20 21 22 23 24 25 26 27 28 29 30 30 30 30 30 30 31 32 33 33 33 33 33 32 32 33 34 35 36 37 38 39 40 41 42 42 43 44 44 45 46 48 49 49 49 48 46 45 46 47 45 41 37 35 35 35 33 32 32 33 36 40 41 41 41 41 41 42 41 39 37 36 34 33 33 33 32 31 30
22 22 21 21 21 21 21 22 24 25 26 27 28 29 29 30 31 31 31 30 30 29 29 30 30 31 31 32 32 33 33 32 32 33 34 35 36 37 38 39 40 42 43 43 44 45 46 47 48 49 50 49 48 47 45 44 43 42 40 37 35 34 34 34 33 32 34 36 39 40 39 39 39 39 39 38 37 35 33 32 32 32 32 32 31 31 32
25 25 25 25 25 25 26 27 28 29 29 30 30 31 31 30 30 30 29 28 28 28 28 28 28 29 30 30 31 31 32 32 32 33 34 36 37 38 39 40 41 42 43 44 45 46 48 49 50 50 49 47 45 43 40 38 38 38 37 36 35 35 35 35 35 37 39 39 39 38 38 38 37 36 35 34 32 31 31 31 31 31 31 31 31 32 33
27 27 27 27 27 28 29 29 30 31 31 31 31 30 29 28 28 27 27 27 26 26 27 27 27 28 29 29 30 30 31 31 32 33 34 35 37 38 39 41 41 42 43 44 45 46 47 46 45 44 43 42 41 39 35 33 35 37 38 37 36 36 37 38 40 41 41 40 39 38 36 35 34 33 32 31 30 30 30 30 30 30 30 31 32 32 33
28 28 28 28 28 29 30 30 31 31 30 30 29 28 27 27 26 26 26 26 26 26 27 27 28 28 29 30 31 31 31 31 32 32 33 34 36 37 38 38 39 39 41 42 42 44 44 42 39 38 38 39 40 39 37 34 35 39 42 43 43 43 43 42 42 41 40 38 36 35 34 33 32 31 31 30 29 29 29 29 30 30 31 32 32 32 33
27 27 28 28 28 29 29 29 29 28 27 27 27 26 26 25 25 25 25 26 26 27 27 28 28 29 29 30 30 30 30 30 30 30 31 31 31 32 33 33 34 36 37 38 37 38 39 38 38 37 36 37 40 42 41 41 43 46 47 46 45 42 40 39 39 38 36 35 34 32 32 31 31 30 30 29 29 29 29 29 30 30 30 30 31 31 31
27 27 27 27 27 27 26 26 26 26 25 25 25 25 25 25 25 25 26 26 26 26 26 27 27 27 28 28 28 28 28 28 27 27 26 26 26 26 27 29 30 31 32 33 34 36 37 37 35 34 33 33 34 33 33 36 40 44 45 44 42 40 38 37 36 34 32 32 31 31 31 30 30 30 29 28 28 27 27 27 26 26 26 27 27 27 27
26 25 24 24 24 24 24 24 24 24 23 23 24 24 24 25 25 25 25 25 25 24 24 24 25 25 26 26 26 25 24 24 23 23 23 23 24 25 26 27 26 26 25 25 27 30 34 35 34 33 34 33 31 28 28 31 34 35 36 37 37 36 34 33 31 30 30 30 30 30 30 30 29 29 27 25 24 22 21 21 22 22 22 23 23 24 24
22 21 21 21 21 21 21 22 22 23 23 24 24 24 25 24 24 23 23 22 22 21 21 22 22 22 22 22 22 22 22 21 22 22 22 22 23 24 24 24 23 22 22 21 22 23 26 28 28 30 32 32 30 29 31 33 32 30 30 31 31 30 29 29 29 29 30 30 30 30 29 29 28 26 23 20 19 18 19 20 20 20 20 20 21 22 22
19 18 18 19 19 19 20 21 22 23 23 24 24 24 24 23 22 21 20 20 19 19 19 19 19 19 19 20 20 20 21 21 21 21 21 21 21 21 21 21 21 20 20 19 19 19 20 22 24 26 28 29 30 31 31 31 29 27 26 27 27 27 27 28 28 29 30 30 30 29 28 27 24 21 18 17 18 19 20 20 21 20 20 20 20 20 21
16 16 17 18 19 20 21 21 22 23 23 24 23 22 21 20 20 19 18 18 18 18 18 18 18 18 19 19 19 19 20 20 20 21 21 21 21 20 20 19 19 19 18 17 16 16 17 19 21 22 23 24 26 26 26 25 25 25 25 25 26 26 27 28 28 29 29 29 28 27 25 23 20 18 18 19 20 21 21 22 22 22 22 21 21 21 21
15 16 17 18 19 20 21 22 22 22 22 21 20 20 19 18 18 18 18 18 18 19 19 19 20 20 20 20 20 21 22 22 23 23 23 23 23 22 21 20 19 19 18 18 17 17 17 18 19 20 20 21 21 21 21 22 22 23 24 25 25 26 27 27 28 27 27 26 25 24 22 20 18 18 19 20 21 22 22 23 23 23 23 23 22 22 22
15 16 17 18 19 20 21 21 21 20 19 18 18 18 18 17 17 17 18 18 19 20 20 21 22 22 22 22 22 22 23 23 24 24 24 24 24 23 23 23 22 22 21 21 21 21 21 21 21 21 21 21 21 21 22 22 23 23 23 24 24 24 25 25 25 24 24 23 21 20 19 19 19 20 21 21 23 24 24 24 24 24 24 23 23 23 23
15 16 16 17 18 19 20 19 19 18 18 18 18 18 18 19 19 19 19 19 20 21 22 22 23 23 24 24 24 24 24 24 24 24 24 23 23 23 23 24 23 23 23 23 23 23 23 23 23 22 22 22 21 21 21 21 21 21 20 21 21 21 22 22 21 21 20 19 19 19 20 21 22 22 23 23 23 24 26 26 26 26 25 25 24 24 24
16 17 18 18 19 19 19 19 19 18 18 19 20 20 20 20 20 20 20 21 21 22 22 23 23 23 24 24 24 24 24 24 24 24 23 23 23 23 23 22 22 22 22 22 22 22 22 21 21 20 20 19 19 18 18 18 18 18 18 18 19 19 20 21 21 20 20 20 20 20 21 23 24 25 26 26 25 26 27 28 29 28 28 27 27 26 25
16 18 19 20 20 20 19 19 19 19 19 20 21 21 20 20 20 21 21 22 22 23 23 23 23 24 24 24 23 23 23 24 24 23 23 23 23 22 22 22 21 20 20 20 20 19 19 19 19 18 18 18 18 17 17 18 18 18 18 18 19 19 20 21 22 22 22 22 23 23 24 26 27 28 29 29 29 28 29 30 30 31 31 30 30 29 28
17 18 19 20 20 20 19 19 18 19 20 20 21 21 21 21 21 21 22 23 23 24 24 24 24 24 24 23 23 23 23 23 22 22 21 20 20 20 20 20 20 19 19 19 19 19 19 19 19 20 20 20 20 21 21 21 21 21 21 22 22 22 22 23 24 24 25 25 26 27 28 29 30 31 32 32 32 32 31 31 32 32 33 33 33 33 32
17 18 18 19 19 20 20 19 19 20 20 21 22 22 21 21 22 23 23 23 24 24 24 25 25 25 24 23 23 22 22 22 21 20 19 19 19 19 19 19 20 20 21 21 21 21 22 22 23 23 24 24 25 25 25 25 25 25 25 26 26 26 26 27 27 27 28 28 29 30 31 32 33 34 34 35 35 35 34 34 34 34 34 35 35 35 35
Wind_Direction
216 214 217 217 215 216 216 216 217 218 219 222 224 227 232 235 236 237 239 240 242 242 241 240 238 240 245 253 259 250 238 243 242 233 230 229 236 248 250 246 259 274 287 299 305 301 289 280 281 289 297 303 308 311 312 315 322 326 326 325 323 317 311 310 311 313 316 313 307 304 299 288 282 278 272 277 298 295 284 286 287 282 283 285 284 282 277
211 210 213 214 215 215 213 212 213 214 217 220 223 228 230 232 234 235 237 240 239 234 234 240 245 248 249 253 259 253 244 244 238 229 232 236 241 250 259 272 284 287 292 300 304 303 299 291 286 289 295 297 300 303 305 308 316 322 324 326 324 318 311 311 316 318 317 313 308 306 303 292 281 273 267 276 300 306 293 285 283 278 276 277 280 278 272
206 204 209 212 214 216 214 212 211 212 215 218 220 222 224 226 230 231 236 238 232 224 231 241 247 251 249 247 251 250 245 240 233 232 239 246 252 261 270 281 284 283 287 294 296 298 298 295 291 291 293 295 298 304 306 306 311 319 324 326 327 325 318 316 319 320 318 315 310 307 310 309 296 280 275 290 306 308 297 285 278 274 270 268 271 272 268
209 198 204 210 211 214 215 213 210 211 215 218 219 220 221 224 227 231 236 237 228 221 232 242 249 255 252 244 239 240 241 236 233 241 248 251 260 267 269 273 275 275 279 284 288 290 291 292 293 293 293 295 300 306 306 304 306 313 321 325 327 326 320 317 318 319 319 320 316 313 316 325 324 315 310 312 314 314 308 294 282 276 271 266 266 268 267
215 197 202 209 209 216 216 212 209 211 215 218 219 220 222 224 226 231 236 234 227 226 236 246 254 259 256 244 232 234 240 235 237 251 255 252 258 262 261 265 267 268 271 275 279 281 283 287 291 291 292 294 298 301 301 299 302 308 316 320 322 322 320 319 317 317 320 322 319 314 311 313 321 327 323 319 321 323 319 306 289 278 273 268 265 265 265
215 199 203 215 220 221 216 208 207 212 215 218 219 220 223 224 225 227 227 225 226 231 239 247 252 256 256 244 234 237 241 234 236 249 253 252 256 256 256 260 263 266 269 272 275 275 276 279 282 285 289 292 293 295 295 295 298 305 313 316 316 317 318 318 317 317 319 320 316 312 309 308 313 321 324 324 326 327 324 316 299 279 271 269 263 261 263
215 203 207 221 225 218 209 204 206 210 212 216 220 223 225 225 224 223 218 218 225 233 240 243 245 247 244 237 234 238 237 233 236 244 248 249 249 247 251 257 260 264 268 270 270 268 266 267 271 279 286 288 289 291 293 293 296 302 309 313 314 314 313 312 315 316 316 316 315 312 311 308 310 319 324 324 325 324 324 321 307 282 267 263 258 258 263
217 208 211 221 219 208 203 204 206 206 210 215 220 225 226 223 223 221 217 216 222 230 237 239 238 238 236 232 233 233 231 232 237 242 246 247 243 240 245 254 256 256 259 260 262 264 264 265 269 276 282 285 285 287 290 291 293 298 305 310 313 313 311 309 311 312 312 313 314 312 312 309 308 314 318 319 321 320 319 319 312 286 263 253 253 259 265
222 215 215 220 217 208 205 205 205 207 211 215 217 220 223 223 222 221 219 219 223 229 234 234 230 231 233 234 235 232 229 231 235 238 242 246 245 239 238 247 251 250 252 256 260 264 264 265 269 274 279 282 281 282 286 287 288 293 299 306 310 310 308 307 307 308 310 312 313 313 313 311 308 306 305 309 316 317 312 312 309 289 265 257 263 268 268
222 221 220 221 219 215 208 204 204 207 210 212 213 218 225 225 222 222 224 225 227 231 233 230 227 228 231 235 237 236 235 236 238 239 241 245 247 242 238 243 248 249 251 254 257 259 261 265 270 273 275 277 276 276 279 280 282 288 294 301 306 306 302 302 304 305 307 310 313 315 313 311 310 305 299 303 311 312 307 304 300 287 274 274 278 278 274
217 220 222 220 219 217 210 205 205 207 209 211 212 219 229 229 225 226 228 228 231 235 234 231 230 231 234 236 237 239 241 242 240 238 238 241 245 244 244 248 252 252 250 249 251 256 259 261 265 267 268 270 270 269 272 275 279 284 289 295 301 302 298 298 301 303 304 308 312 314 311 308 307 302 299 303 306 305 303 301 297 291 287 289 291 287 282
214 218 222 221 220 219 213 209 207 208 212 215 215 220 228 229 226 228 230 231 233 235 233 231 232 234 237 238 237 236 237 237 236 236 237 238 240 242 244 248 252 252 250 251 255 260 261 261 262 263 264 264 265 266 270 275 277 280 284 291 297 298 296 297 300 300 299 304 310 311 308 305 304 303 304 306 307 306 305 303 299 295 295 297 297 294 289
211 217 222 222 219 217 214 212 212 211 214 217 218 223 228 228 226 229 232 233 233 232 230 231 234 236 238 239 239 238 235 232 234 240 242 241 240 241 242 245 248 251 253 257 262 266 266 265 263 263 262 261 263 266 270 273 275 278 283 289 293 294 294 294 296 295 295 300 305 306 305 304 305 306 307 307 308 310 312 307 300 297 298 297 294 289 287
209 214 220 221 219 216 216 218 221 222 222 220 219 221 225 227 227 229 232 234 233 230 229 231 235 236 236 238 244 248 246 238 236 240 243 242 243 245 246 247 249 252 256 260 264 265 264 264 263 263 264 263 263 266 268 271 275 280 284 288 290 291 291 291 292 292 293 297 301 302 303 304 307 308 309 308 308 310 312 311 308 303 299 294 287 283 285
203 210 215 217 218 217 218 222 226 229 230 228 223 224 227 229 229 232 236 237 235 230 228 231 236 238 238 241 246 250 250 244 240 242 246 247 248 250 252 254 256 258 261 263 265 265 266 268 268 267 265 264 264 265 269 274 279 282 285 288 289 289 288 288 289 290 292 295 299 302 302 304 307 308 308 309 310 309 311 315 319 315 304 290 282 285 293
198 206 211 212 214 215 216 220 225 229 232 233 232 235 237 236 234 237 242 244 241 233 230 234 239 240 240 242 243 244 247 246 244 247 250 252 254 257 261 265 268 271 273 276 277 276 276 276 275 270 265 263 263 265 270 277 282 284 286 288 289 287 286 286 288 290 292 296 300 302 303 304 306 306 306 308 308 307 306 310 319 322 310 293 283 288 299
198 202 206 208 210 212 215 218 223 227 230 233 236 240 240 238 236 236 240 242 241 236 234 237 241 242 241 241 241 242 244 245 245 249 253 256 259 262 266 271 277 281 286 289 290 287 284 282 279 274 269 266 267 270 276 280 283 284 286 288 288 287 286 286 288 290 293 295 297 299 301 303 303 303 304 304 301 299 299 301 307 316 315 303 292 290 296
199 197 198 201 204 208 213 215 217 221 225 229 233 235 234 233 232 232 234 237 238 238 238 239 241 243 245 245 244 245 247 247 249 252 255 258 261 264 268 273 279 284 289 292 291 287 285 283 281 277 274 272 273 276 280 282 284 286 287 287 287 285 285 286 287 289 290 292 295 298 301 303 304 304 303 301 297 295 295 295 297 304 313 314 307 301 301
200 194 193 194 195 198 202 206 211 214 217 221 224 224 226 229 229 228 229 232 235 237 240 241 242 243 245 247 248 249 249 250 251 253 254 256 259 264 270 277 281 285 290 293 292 288 284 281 279 278 276 275 276 278 279 282 284 285 286 284 283 283 284 285 285 286 288 290 293 297 299 302 304 304 303 302 301 297 294 294 296 302 308 311 309 306 306
210 200 194 194 195 195 194 197 204 209 213 216 217 218 220 223 224 225 226 228 230 232 235 239 240 241 242 243 244 247 248 249 250 251 250 251 255 262 271 278 282 284 287 290 292 291 287 282 278 276 275 275 277 280 281 282 283 284 283 282 282 283 283 283 284 285 287 289 291 294 298 300 301 300 300 301 300 296 293 295 299 303 305 306 305 304 304
224 218 204 198 199 200 199 200 203 207 210 213 215 217 219 220 221 223 224 226 230 233 234 237 239 241 242 242 242 244 247 248 250 250 250 251 256 265 275 281 285 286 286 288 292 295 292 287 281 277 277 279 283 286 286 285 284 283 282 281 281 281 281 281 283 285 286 287 290 293 296 297 297 297 297 297 295 293 293 295 299 302 302 301 302 304 305
235 235 230 219 211 210 209 208 210 213 216 218 220 222 224 224 226 228 228 230 236 240 242 243 244 247 250 250 249 249 249 252 254 254 254 256 262 270 279 284 288 289 288 289 293 295 292 287 284 282 282 284 286 287 286 285 284 283 282 282 282 281 281 282 283 285 287 289 291 294 295 295 295 295 295 294 294 293 294 296 298 299 299 301 305 307 307
244 244 244 239 231 226 223 220 219 220 222 225 227 228 227 226 229 232 235 237 242 246 249 251 252 254 257 258 259 259 258 259 260 259 257 260 266 273 281 286 288 289 289 289 290 290 288 286 283 282 282 283 284 284 284 284 284 284 283 283 282 281 282 283 284 286 288 290 291 292 293 294 294 294 294 294 294 294 295 296 297 298 301 305 307 308 309
246 246 246 245 244 242 238 234 230 228 230 234 234 233 233 233 236 239 241 244 249 254 259 262 264 265 265 264 265 266 264 261 258 256 257 263 270 276 281 284 285 284 284 283 283 284 287 286 283 281 281 281 281 281 281 281 282 282 282 282 281 282 282 283 284 286 288 289 291 292 293 294 294 295 296 295 294 295 295 296 299 303 307 307 306 305 308
236 243 245 245 246 247 247 246 244 244 248 252 252 251 251 249 248 250 254 258 261 262 264 266 267 267 265 263 263 263 259 254 253 256 262 268 273 276 278 279 279 280 280 281 282 284 285 283 280 279 279 279 278 278 277 278 280 282 283 283 283 283 284 284 285 287 289 291 292 293 294 295 295 296 296 296 296 297 298 300 305 308 307 305 304 304 306
228 233 238 239 240 242 244 245 247 249 252 255 257 258 259 258 259 264 270 275 275 271 268 268 269 266 262 258 256 254 250 250 256 262 267 270 273 274 274 275 277 279 280 281 280 280 279 278 278 278 279 280 280 281 281 282 284 285 286 286 285 285 285 286 287 289 290 290 291 292 293 294 295 295 296 296 297 299 300 303 306 307 306 305 304 305 307
228 228 230 231 231 233 236 240 244 248 252 255 258 259 261 263 267 269 271 272 271 268 270 273 274 271 266 263 260 257 255 257 262 264 266 268 270 270 272 274 276 277 277 277 277 279 280 281 281 281 281 282 283 284 285 285 286 286 286 285 285 285 285 286 287 287 287 287 289 291 294 295 295 295 295 296 297 299 301 303 303 303 304 305 307 308 309
226 225 226 226 225 227 232 236 239 243 247 250 253 256 260 266 270 270 268 266 265 266 271 275 274 271 268 268 268 266 263 262 263 263 264 265 266 267 269 272 274 275 275 276 279 283 285 284 283 282 282 283 283 284 285 285 286 286 286 285 285 285 285 286 287 286 285 287 290 293 295 295 294 293 294 295 297 298 300 300 300 302 306 307 307 307 306
221 224 223 222 219 217 217 218 217 217 221 231 243 253 263 270 271 269 267 267 268 269 271 273 274 271 269 269 269 267 263 262 262 263 264 265 266 268 269 271 273 275 277 279 282 284 285 284 283 282 282 282 283 284 285 286 287 288 288 288 288 287 287 287 286 286 287 289 291 293 294 293 293 294 294 295 296 297 298 299 302 305 307 306 305 304 304
205 205 204 205 204 201 199 205 212 220 232 246 255 261 265 266 266 267 268 268 269 269 268 268 269 268 266 266 266 264 262 263 264 265 265 266 267 269 271 274 276 277 278 279 281 282 282 281 281 281 281 282 284 285 285 286 287 288 288 289 290 290 291 289 286 285 287 289 291 292 292 293 295 296 295 295 296 296 298 302 305 306 305 303 303 304 305
184 186 188 199 211 216 222 236 248 255 261 266 268 270 272 272 272 273 274 272 272 271 269 267 266 265 264 264 263 263 264 264 266 267 268 268 269 272 274 276 277 276 276 277 277 278 278 279 280 281 282 283 284 284 285 287 287 286 287 290 292 292 290 286 284 284 286 288 290 292 292 294 296 297 296 296 296 297 299 302 303 301 299 300 301 302 302
208 211 217 231 242 246 247 251 256 261 266 270 272 274 276 277 276 276 275 275 276 277 277 275 274 272 271 269 267 267 268 267 267 267 268 269 271 273 274 274 274 273 274 274 274 276 277 278 280 281 282 283 284 285 287 289 289 288 289 292 292 289 285 284 283 284 286 288 290 292 292 294 296 297 297 297 298 299 302 303 300 297 297 299 300 300 301
238 239 240 244 250 256 259 259 261 263 266 270 272 274 276 278 279 279 280 281 282 283 282 280 278 276 274 271 269 267 267 266 265 264 264 265 267 269 270 271 271 271 272 273 274 275 277 278 279 281 281 283 285 286 288 290 290 290 292 294 293 289 286 284 282 283 284 286 289 291 292 294 295 296 297 299 301 302 303 302 299 298 299 300 299 301 303
248 250 252 254 258 262 266 268 269 270 272 273 275 277 278 279 280 280 280 280 281 280 279 277 275 273 271 269 267 266 265 264 263 263 262 262 263 265 266 268 269 270 271 273 274 276 277 278 279 280 281 283 285 287 289 292 292 291 293 294 293 289 284 279 277 278 279 280 285 291 294 295 295 296 297 300 301 301 300 299 298 299 299 299 301 304 305
248 252 254 256 260 264 268 270 273 275 276 277 278 278 279 279 279 279 279 279 278 277 275 272 271 270 269 268 269 268 268 267 267 266 266 266 267 268 269 270 272 273 274 275 276 277 278 279 280 281 282 284 286 289 292 294 292 290 289 289 288 285 279 274 272 275 278 283 291 296 298 297 297 298 298 299 298 297 297 297 298 299 299 300 302 304 304
244 248 252 256 260 263 266 269 273 275 277 279 280 280 280 279 278 277 277 275 274 272 271 269 268 267 268 268 269 270 271 272 272 273 273 273 273 274 274 274 275 276 277 278 278 279 280 280 281 282 284 285 287 290 292 291 288 285 282 278 274 271 270 270 274 282 291 296 299 299 298 297 297 297 297 296 295 295 296 296 298 299 299 300 301 302 300
242 245 250 255 259 263 266 269 271 274 277 278 279 280 279 278 276 275 273 272 271 270 269 269 269 269 269 270 270 270 271 272 273 274 274 275 276 277 277 277 278 279 280 280 280 280 281 281 282 282 282 284 285 287 287 285 282 279 275 269 264 263 269 278 288 296 300 300 299 297 296 297 297 297 296 295 295 295 296 298 299 299 300 300 301 301 300
242 246 250 254 257 261 265 268 271 275 278 280 280 280 278 276 275 275 275 274 274 274 274 274 274 274 275 275 276 276 277 277 277 278 278 279 280 281 282 282 283 282 281 281 280 279 278 279 280 280 281 283 284 282 279 276 273 269 266 265 268 274 282 289 295 297 297 296 295 296 297 297 297 296 295 295 295 296 298 299 299 300 301 301 301 301 302
245 247 250 254 258 262 267 271 274 277 278 279 278 277 276 275 276 276 277 278 278 279 279 279 280 281 282 282 283 283 284 284 284 284 285 285 285 285 285 284 282 281 280 280 278 276 274 272 270 269 271 273 273 271 268 266 265 265 266 272 279 285 288 291 292 292 293 294 295 295 296 295 295 295 295 295 296 298 298 299 300 300 301 301 302 303 303
249 252 255 259 263 267 270 273 275 276 276 277 277 277 276 277 278 278 279 281 282 283 284 285 286 287 287 288 288 288 288 288 288 287 286 286 285 283 282 281 280 279 279 278 273 271 270 268 263 260 260 261 261 262 262 263 263 265 268 274 280 284 286 288 288 289 290 292 293 293 293 293 293 294 295 296 298 299 299 299 300 300 301 302 303 303 303
255 258 261 264 267 270 272 274 275 276 277 277 278 278 279 280 282 283 284 286 287 288 289 289 289 290 290 289 289 289 288 287 286 286 285 284 282 281 281 283 285 286 285 281 273 269 270 270 266 262 260 259 261 264 268 269 269 269 270 273 278 283 285 286 287 287 289 291 292 292 293 293 294 295 297 298 299 299 299 300 302 304 305 306 306 305 304
258 260 263 266 268 271 273 275 277 278 279 280 281 283 285 286 288 289 291 291 291 292 292 292 292 292 291 290 289 288 287 285 285 285 285 286 286 286 286 288 291 293 292 288 280 274 273 271 267 262 260 261 266 271 276 279 279 276 274 274 277 281 282 284 286 288 289 291 292 293 294 294 295 296 298 298 298 299 302 306 310 313 314 314 312 310 309
255 259 262 266 269 272 275 277 279 280 282 284 286 289 290 292 293 294 294 293 294 294 295 296 296 296 295 293 292 290 288 287 288 290 292 293 294 294 293 293 295 297 297 294 290 284 279 275 270 264 262 265 271 277 280 282 282 280 278 278 279 281 284 286 289 290 291 292 292 292 292 292 294 295 296 296 298 303 308 313 317 320 321 321 320 318 316
255 260 265 268 272 275 278 280 283 284 286 289 291 293 294 294 294 292 291 291 292 294 296 298 301 300 298 296 294 292 291 292 294 295 297 298 299 298 297 296 296 299 302 303 302 298 289 281 276 272 269 271 275 280 282 284 285 284 283 283 284 285 287 288 290 290 291 290 290 289 290 291 291 291 292 296 302 308 311 314 317 321 323 324 324 323 322
263 269 272 275 278 281 283 285 288 290 292 293 294 294 293 291 288 287 286 288 291 293 295 296 297 297 296 295 295 294 295 296 297 297 298 299 300 300 300 300 300 303 306 307 307 303 295 286 281 279 277 277 278 279 281 281 282 282 282 283 284 285 287 287 287 287 286 285 286 287 288 288 287 288 293 299 305 308 310 313 315 318 321 323 324 325 325
272 276 279 281 284 286 289 291 293 294 294 293 291 288 284 281 280 280 282 285 288 291 291 290 290 291 291 293 295 296 296 297 297 297 297 297 297 297 297 298 298 300 302 303 303 301 296 291 287 284 282 281 280 280 281 281 281 281 282 283 283 283 283 283 282 283 283 284 286 286 284 283 284 289 295 300 303 305 306 308 310 312 315 318 320 322 323
277 280 283 287 290 292 294 295 295 293 291 287 283 279 276 274 274 277 281 285 287 289 290 290 290 290 290 291 293 294 295 296 296 295 294 294 294 293 292 292 293 294 296 297 297 296 295 293 291 289 287 286 285 284 283 282 282 281 281 281 281 280 281 282 283 286 287 288 287 284 282 282 286 290 294 297 298 299 301 302 303 306 309 311 313 315 318
283 286 290 292 293 294 293 292 290 288 285 281 278 276 275 275 277 280 284 287 289 290 291 292 292 292 292 292 292 292 292 292 292 292 292 291 291 291 291 292 293 295 295 295 294 294 293 291 289 287 285 283 282 281 280 280 279 279 279 279 280 281 282 285 287 289 289 288 285 282 282 285 288 291 292 292 292 294 296 298 300 302 303 305 307 309 311
288 291 292 292 291 290 288 285 283 283 283 283 283 282 282 282 284 286 287 288 288 289 290 291 292 292 292 291 290 290 289 289 288 288 287 287 287 288 289 290 291 291 291 290 290 289 288 286 285 284 283 283 282 283 283 283 283 283 283 283 284 285 286 287 288 288 287 285 284 283 284 286 288 290 291 291 291 291 293 294 296 297 299 300 302 303 305
287 289 290 290 290 288 284 281 279 281 283 286 287 288 287 287 288 288 288 289 289 289 289 289 289 288 288 287 287 286 286 285 284 284 284 284 284 284 284 284 285 285 284 284 283 283 283 283 283 283 283 284 285 286 286 287 287 286 286 287 287 287 287 288 288 288 286 285 284 283 283 284 286 287 288 289 289 289 290 291 292 293 295 296 297 298 299
284 285 285 286 286 287 285 283 282 283 285 286 287 287 287 288 289 289 288 289 288 288 287 286 285 285 285 284 284 283 282 281 281 281 281 281 281 280 280 280 280 280 280 281 282 282 283 284 285 286 287 287 287 288 288 288 289 289 289 289 289 288 287 287 287 286 285 284 283 282 282 282 283 284 285 287 288 288 289 289 289 290 291 292 293 294 294
288 287 286 284 285 286 287 286 285 283 283 283 283 283 285 286 287 287 287 286 285 285 285 285 284 283 283 281 280 280 279 279 279 279 279 279 279 279 279 280 281 281 282 283 284 285 286 287 287 287 288 288 289 289 289 290 290 290 290 289 289 288 288 287 286 285 285 284 283 282 281 281 282 284 285 286 288 289 289 289 288 289 289 290 291 291 292